Flag for U.S.A. Weather past 2 weeks in Cape Canaveral, Florida, U.S.A.

Now
78 °F

Sunny.


Feels Like: 80 °F
Forecast: 74 / 85 °F
Wind: 5 mph from Southwest

Location: Cape Kennedy

Current Time: Jul 6, 2015 at 10:14:05 AM

Latest Report: Jul 6, 2015 at 8:58 AM


Visibility: 10 mi

Pressure: 30.19 "Hg

Humidity: 89%

Dew point: 74 °F

Location of Cape CanaveralLocation

Historic Weather in Cape Canaveral — Graph

°F

Cape Canaveral temperature yesterday

Maximum temperature yesterday: 89 °F (at 2:58 PM)
Minimum temperature yesterday: 73 °F (at 4:58 AM)
Average temperature yesterday: 80 °F

Past Weeks' High & Low Weather Summary

 TemperatureHumidityPressure
High96 °F (Jun 22, 2:58 PM)100% (Jul 5, 4:58 AM)30.19 "Hg (Jul 5, 4:58 AM)
Low70 °F (Jul 3, 6:58 AM)44% (Jun 22, 4:58 PM)29.98 "Hg (Jun 27, 4:58 PM)
Average81 °F79%30.10 "Hg
* Reported Jun 21 8:58 AM — Jul 6 8:58 AM, Cape Canaveral, Weather by CustomWeather, © 2015

Note: Actual official high and low records may vary slightly from our data, if they occured in-between our weather recording intervals... More about our weather records

Advertising

Cape Canaveral weather history for previous 24 hours

 ConditionsComfort  
Time TempWeatherWind HumidityBarometerVisibility
8:58 AM
Mon, Jul 6
78 °FSunny.5 mph89%30.19 "Hg10 mi
7:58 AM75 °FSunny.1 mph99%30.16 "Hg10 mi
5:58 AM73 °FClear.1 mph96%30.14 "Hg10 mi
4:58 AM72 °FClear.3 mph96%30.13 "Hg10 mi
3:58 AM74 °FClear.No wind92%30.11 "Hg10 mi
2:58 AM74 °FClear.5 mph93%30.12 "Hg10 mi
1:58 AM74 °FClear.9 mph93%30.16 "Hg10 mi
12:58 AM75 °FClear.7 mph95%30.16 "Hg10 mi
11:58 PM
Sun, Jul 5
74 °FClear.9 mph95%30.16 "Hg10 mi
10:58 PM74 °FThundershowers. Clear.3 mph93%30.19 "Hg10 mi
9:59 PM75 °FThundershowers. Fog.3 mph89%30.18 "Hg6 mi
9:58 PM75 °FThunderstorms. Fog.3 mph89%30.19 "Hg6 mi
8:58 PM75 °FThunderstorms. Sunny.3 mph87%30.16 "Hg10 mi
7:58 PM78 °FThunderstorms. Passing clouds.15 mph79%30.17 "Hg10 mi
6:58 PM84 °FSunny.3 mph77%30.15 "Hg10 mi
5:58 PM85 °FSunny.13 mph73%30.12 "Hg10 mi
4:58 PM87 °FSunny.14 mph69%30.13 "Hg10 mi
3:58 PM88 °FSunny.15 mph67%30.13 "Hg10 mi
2:58 PM89 °FSunny.15 mph65%30.14 "Hg10 mi
1:58 PM88 °FPassing clouds.12 mph69%30.16 "Hg10 mi
12:58 PM88 °FPassing clouds.9 mph68%30.17 "Hg10 mi
11:58 AM88 °FSunny.9 mph70%30.18 "Hg10 mi
10:58 AM87 °FSunny.7 mph71%30.18 "Hg10 mi
Weather by CustomWeather, © 2015

See weather overviewHow to use our weather pages